KC5TIL-3 Weather Reports


time (UTC)temp
C
wind
direction
speed
KPH
gust
KPH
rain 1hr
cm
rain 24hr
cm
rain mn
cm
humidity
%
barometer
mb
20260906231107 36 117 11.3 17.7 0.00 0.00 0.00 16 1007.8
20260906230609 36 100 8.0 16.1 0.00 0.00 0.00 16 1007.8
20260906230111 36 127 12.9 22.5 0.00 0.00 0.00 16 1007.8
20260906225610 36 121 9.7 20.9 0.00 0.00 0.00 16 1007.8
20260906225112 36 132 12.9 20.9 0.00 0.00 0.00 16 1007.8
20260906224613 36 116 17.7 19.3 0.00 0.00 0.00 16 1007.8
20260906224112 36 150 11.3 16.1 0.00 0.00 0.00 15 1007.8
20260906223614 36 98 11.3 19.3 0.00 0.00 0.00 15 1007.8
20260906223116 36 131 11.3 16.1 0.00 0.00 0.00 16 1008.8
20260906222614 36 133 16.1 24.1 0.00 0.00 0.00 16 1008.8
20260906222116 36 98 16.1 20.9 0.00 0.00 0.00 16 1008.8
20260906221618 36 114 8.0 22.5 0.00 0.00 0.00 15 1008.8
20260906221117 36 131 6.4 17.7 0.00 0.00 0.00 15 1008.8
20260906220618 36 113 11.3 19.3 0.00 0.00 0.00 15 1008.8
20260906220120 36 128 9.7 16.1 0.00 0.00 0.00 13 1008.8
20260906215619 36 124 8.0 14.5 0.00 0.00 0.00 15 1008.8
20260906215116 36 351 8.0 19.3 0.00 0.00 0.00 15 1008.8
20260906214613 36 109 16.1 20.9 0.00 0.00 0.00 15 1008.8
20260906214107 36 111 16.1 22.5 0.00 0.00 0.00 15 1008.8
20260906213609 36 91 11.3 17.7 0.00 0.00 0.00 15 1008.8
20260906213111 36 72 9.7 20.9 0.00 0.00 0.00 13 1008.8
20260906212605 36 110 14.5 17.7 0.00 0.00 0.00 16 1008.8
20260906212107 36 132 4.8 9.7 0.00 0.00 0.00 15 1008.8
20260906211608 36 89 8.0 16.1 0.00 0.00 0.00 15 1008.8
20260906211107 36 132 9.7 19.3 0.00 0.00 0.00 15 1008.8
20260906210604 36 139 12.9 19.3 0.00 0.00 0.00 13 1008.8
20260906210106 36 123 8.0 11.3 0.00 0.00 0.00 15 1008.8
20260906205604 36 113 11.3 17.7 0.00 0.00 0.00 16 1008.8
20260906205106 35 104 16.1 24.1 0.00 0.00 0.00 16 1008.8
20260906204608 35 137 19.3 22.5 0.00 0.00 0.00 16 1009.8
20260906204106 36 133 9.7 17.7 0.00 0.00 0.00 16 1009.8
20260906203608 36 74 8.0 16.1 0.00 0.00 0.00 15 1009.8
20260906203110 36 182 16.1 22.5 0.00 0.00 0.00 16 1009.8
20260906202604 36 109 9.7 16.1 0.00 0.00 0.00 16 1009.8
20260906202106 36 148 9.7 17.7 0.00 0.00 0.00 15 1009.8
20260906201602 36 116 8.0 16.1 0.00 0.00 0.00 15 1009.8
20260906201101 36 129 0.0 11.3 0.00 0.00 0.00 16 1009.8
20260906200603 35 6 8.0 14.5 0.00 0.00 0.00 16 1009.8
20260906200105 36 67 6.4 22.5 0.00 0.00 0.00 15 1009.8
20260906195603 36 52 14.5 19.3 0.00 0.00 0.00 16 1009.8
20260906195105 36 171 9.7 24.1 0.00 0.00 0.00 16 1009.8
20260906194607 35 124 19.3 25.7 0.00 0.00 0.00 16 1009.8
20260906194106 36 116 4.8 16.1 0.00 0.00 0.00 16 1009.8
20260906193608 36 138 6.4 24.1 0.00 0.00 0.00 16 1009.8
20260906193105 35 132 12.9 24.1 0.00 0.00 0.00 17 1009.8
20260906192603 36 286 6.4 12.9 0.00 0.00 0.00 16 1009.8
20260906192105 35 104 11.3 19.3 0.00 0.00 0.00 16 1009.8
20260906191607 35 124 17.7 24.1 0.00 0.00 0.00 17 1009.8
20260906191105 36 154 0.0 12.9 0.00 0.00 0.00 16 1009.8
20260906190607 35 28 4.8 11.3 0.00 0.00 0.00 16 1009.8
20260906190109 35 42 6.4 14.5 0.00 0.00 0.00 17 1010.8
20260906185607 35 208 0.0 11.3 0.00 0.00 0.00 17 1010.8
20260906185109 35 208 8.0 19.3 0.00 0.00 0.00 17 1010.8
20260906184610 34 124 16.1 19.3 0.00 0.00 0.00 17 1010.8
20260906184109 35 122 12.9 20.9 0.00 0.00 0.00 17 1010.8
20260906183606 35 128 11.3 12.9 0.00 0.00 0.00 16 1010.8
20260906183107 34 111 4.8 19.3 0.00 0.00 0.00 17 1010.8
20260906182606 35 128 0.0 6.4 0.00 0.00 0.00 17 1010.8
20260906182108 34 110 0.0 16.1 0.00 0.00 0.00 17 1010.8
20260906181610 33 114 16.1 22.5 0.00 0.00 0.00 18 1010.8
20260906181108 34 107 9.7 16.1 0.00 0.00 0.00 17 1010.8
20260906180610 34 89 8.0 17.7 0.00 0.00 0.00 17 1010.8
20260906180112 35 126 6.4 17.7 0.00 0.00 0.00 17 1010.8
20260906175610 34 131 9.7 14.5 0.00 0.00 0.00 17 1010.8
20260906175112 34 122 6.4 19.3 0.00 0.00 0.00 17 1010.8
20260906174614 33 122 19.3 24.1 0.00 0.00 0.00 18 1011.8
20260906174113 33 100 8.0 16.1 0.00 0.00 0.00 18 1011.8
20260906173615 34 145 0.0 16.1 0.00 0.00 0.00 18 1011.8
20260906173116 33 125 11.3 20.9 0.00 0.00 0.00 18 1011.8
20260906172615 34 166 6.4 14.5 0.00 0.00 0.00 17 1011.8
20260906172117 34 128 11.3 16.1 0.00 0.00 0.00 18 1011.8
20260906171619 33 127 8.0 16.1 0.00 0.00 0.00 19 1011.8
20260906171112 34 133 0.0 16.1 0.00 0.00 0.00 19 1011.8
20260906170614 34 114 4.8 16.1 0.00 0.00 0.00 19 1011.8
20260906170116 33 119 9.7 14.5 0.00 0.00 0.00 19 1011.8
20260906165615 32 120 8.0 12.9 0.00 0.00 0.00 20 1011.8
20260906165116 33 114 9.7 14.5 0.00 0.00 0.00 21 1011.8
20260906164618 33 128 8.0 11.3 0.00 0.00 0.00 19 1011.8
20260906164117 33 277 6.4 11.3 0.00 0.00 0.00 19 1011.8
20260906163614 33 64 6.4 11.3 0.00 0.00 0.00 20 1011.8
20260906163116 32 337 4.8 8.0 0.00 0.00 0.00 21 1011.8
20260906162605 33 308 6.4 14.5 0.00 0.00 0.00 20 1011.8
20260906162102 33 122 6.4 14.5 0.00 0.00 0.00 22 1011.8
20260906161604 32 320 6.4 11.3 0.00 0.00 0.00 23 1011.8
20260906161103 32 131 8.0 12.9 0.00 0.00 0.00 25 1011.8
20260906160559 32 158 4.8 16.1 0.00 0.00 0.00 26 1011.8
20260906155600 31 86 9.7 11.3 0.00 0.00 0.00 27 1011.8
20260906155102 31 113 8.0 12.9 0.00 0.00 0.00 28 1011.8
20260906154604 31 136 6.4 11.3 0.00 0.00 0.00 28 1011.8
20260906154102 31 104 0.0 11.3 0.00 0.00 0.00 28 1011.8
20260906153604 31 140 0.0 11.3 0.00 0.00 0.00 29 1011.8
20260906153106 31 117 6.4 11.3 0.00 0.00 0.00 30 1011.8
20260906152605 31 123 8.0 11.3 0.00 0.00 0.00 30 1011.8
20260906152107 30 111 6.4 14.5 0.00 0.00 0.00 31 1011.8
20260906151608 30 127 6.4 9.7 0.00 0.00 0.00 31 1011.8
20260906151107 31 124 0.0 9.7 0.00 0.00 0.00 32 1011.8
20260906150609 30 117 4.8 8.0 0.00 0.00 0.00 33 1011.8
20260906150110 30 111 0.0 11.3 0.00 0.00 0.00 35 1011.8
20260906145609 30 119 8.0 9.7 0.00 0.00 0.00 33 1011.8
20260906145111 30 128 0.0 6.4 0.00 0.00 0.00 34 1011.8
20260906144613 30 128 0.0 9.7 0.00 0.00 0.00 35 1011.8
20260906144111 30 137 0.0 4.8 0.00 0.00 0.00 36 1011.8
20260906143613 30 137 0.0 6.4 0.00 0.00 0.00 37 1011.8
20260906143115 29 119 0.0 6.4 0.00 0.00 0.00 38 1011.8
20260906142614 29 118 0.0 4.8 0.00 0.00 0.00 40 1011.8
20260906142116 28 117 6.4 6.4 0.00 0.00 0.00 41 1011.8
20260906141617 28 116 0.0 4.8 0.00 0.00 0.00 42 1011.8
20260906141116 28 115 0.0 9.7 0.00 0.00 0.00 43 1011.8
20260906140618 28 121 4.8 6.4 0.00 0.00 0.00 43 1011.8
20260906140120 27 121 6.4 11.3 0.00 0.00 0.00 45 1011.8
20260906135618 28 125 0.0 9.7 0.00 0.00 0.00 45 1011.8
20260906135120 27 121 8.0 9.7 0.00 0.00 0.00 46 1011.8
20260906134622 27 119 6.4 8.0 0.00 0.00 0.00 47 1011.8
20260906134121 27 120 6.4 8.0 0.00 0.00 0.00 48 1011.8
20260906133623 27 118 0.0 6.4 0.00 0.00 0.00 50 1011.8
20260906133124 27 118 6.4 8.0 0.00 0.00 0.00 52 1011.8
20260906132623 27 118 6.4 11.3 0.00 0.00 0.00 52 1011.8
20260906132125 27 118 6.4 9.7 0.00 0.00 0.00 53 1011.8
20260906131627 26 118 0.0 8.0 0.00 0.00 0.00 55 1011.8
20260906131125 26 118 6.4 8.0 0.00 0.00 0.00 56 1011.8
20260906130627 26 118 6.4 9.7 0.00 0.00 0.00 57 1011.8
20260906130129 26 118 6.4 8.0 0.00 0.00 0.00 58 1011.8
20260906125628 26 117 4.8 8.0 0.00 0.00 0.00 58 1011.8
20260906125130 26 117 6.4 6.4 0.00 0.00 0.00 59 1011.8
20260906124631 26 118 0.0 6.4 0.00 0.00 0.00 60 1011.8
20260906124130 26 113 4.8 11.3 0.00 0.00 0.00 60 1011.8
20260906123618 26 114 9.7 11.3 0.00 0.00 0.00 60 1011.8
20260906123119 26 129 8.0 11.3 0.00 0.00 0.00 61 1011.8
20260906122618 26 115 8.0 9.7 0.00 0.00 0.00 61 1011.8
20260906122120 26 110 6.4 11.3 0.00 0.00 0.00 61 1011.8
20260906121622 26 118 9.7 9.7 0.00 0.00 0.00 60 1010.8
20260906121120 26 119 6.4 8.0 0.00 0.00 0.00 60 1010.8
20260906120622 26 119 6.4 8.0 0.00 0.00 0.00 60 1010.8
20260906120124 26 119 0.0 8.0 0.00 0.00 0.00 60 1010.8
20260906115623 26 119 4.8 8.0 0.00 0.00 0.00 60 1010.8
20260906115125 26 118 6.4 9.7 0.00 0.00 0.00 59 1010.8
20260906114626 26 119 0.0 8.0 0.00 0.00 0.00 58 1010.8
20260906114125 26 119 6.4 8.0 0.00 0.00 0.00 58 1010.8
20260906113627 26 119 8.0 9.7 0.00 0.00 0.00 57 1010.8
20260906113129 26 120 8.0 9.7 0.00 0.00 0.00 57 1010.8
20260906112628 26 122 8.0 9.7 0.00 0.00 0.00 56 1010.8
20260906112129 26 176 6.4 9.7 0.00 0.00 0.00 54 1010.8
20260906111631 26 176 8.0 8.0 0.00 0.00 0.00 54 1010.8
20260906111130 26 192 6.4 8.0 0.00 0.00 0.00 54 1010.8
20260906110632 26 200 4.8 6.4 0.00 0.00 0.00 56 1010.8
20260906110134 26 200 0.0 0.0 0.00 0.00 0.00 57 1010.8
20260906105632 26 200 0.0 4.8 0.00 0.00 0.00 57 1010.8
20260906105134 26 200 0.0 0.0 0.00 0.00 0.00 55 1010.8
20260906104636 26 201 0.0 0.0 0.00 0.00 0.00 53 1010.8
20260906104135 26 201 0.0 0.0 0.00 0.00 0.00 52 1010.8
20260906103636 26 201 0.0 0.0 0.00 0.00 0.00 51 1010.8
20260906103138 26 201 0.0 4.8 0.00 0.00 0.00 50 1010.8
20260906102637 26 201 0.0 4.8 0.00 0.00 0.00 49 1010.8
20260906102139 26 201 0.0 6.4 0.00 0.00 0.00 48 1010.8
20260906101641 26 201 0.0 4.8 0.00 0.00 0.00 48 1009.8
20260906101139 27 201 0.0 6.4 0.00 0.00 0.00 48 1009.8
20260906100641 27 202 4.8 6.4 0.00 0.00 0.00 48 1009.8
20260906100143 27 203 0.0 6.4 0.00 0.00 0.00 47 1009.8
20260906095642 27 203 0.0 6.4 0.00 0.00 0.00 47 1009.8
20260906095143 27 203 0.0 0.0 0.00 0.00 0.00 46 1009.8
20260906094645 27 203 0.0 6.4 0.00 0.00 0.00 46 1009.8
20260906094144 27 203 0.0 4.8 0.00 0.00 0.00 46 1009.8
20260906093646 27 203 0.0 0.0 0.00 0.00 0.00 45 1009.8
20260906093148 27 203 0.0 4.8 0.00 0.00 0.00 44 1009.8
20260906092646 27 203 0.0 4.8 0.00 0.00 0.00 44 1009.8
20260906092148 27 204 0.0 6.4 0.00 0.00 0.00 44 1009.8
20260906091650 27 217 0.0 6.4 0.00 0.00 0.00 44 1009.8
20260906091149 27 217 4.8 6.4 0.00 0.00 0.00 44 1009.8
20260906090650 27 217 0.0 8.0 0.00 0.00 0.00 44 1009.8
20260906090152 27 211 0.0 9.7 0.00 0.00 0.00 44 1009.8
20260906085651 27 194 4.8 6.4 0.00 0.00 0.00 43 1009.8
20260906085153 27 169 4.8 6.4 0.00 0.00 0.00 43 1009.8
20260906084655 27 188 4.8 8.0 0.00 0.00 0.00 43 1009.8
20260906084153 27 187 0.0 8.0 0.00 0.00 0.00 43 1009.8
20260906083655 27 189 4.8 6.4 0.00 0.00 0.00 42 1009.8
20260906083157 27 199 4.8 9.7 0.00 0.00 0.00 42 1009.8
20260906082656 27 169 6.4 9.7 0.00 0.00 0.00 42 1009.8
20260906082153 27 213 8.0 12.9 0.00 0.00 0.00 42 1009.8
20260906081654 28 217 9.7 11.3 0.00 0.00 0.00 41 1009.8
20260906081153 28 191 6.4 9.7 0.00 0.00 0.00 42 1009.8
20260906080655 28 220 0.0 9.7 0.00 0.00 0.00 42 1009.8
20260906080152 28 211 0.0 9.7 0.00 0.00 0.00 42 1009.8
20260906075645 28 216 6.4 11.3 0.00 0.00 0.00 42 1009.8
20260906075147 28 192 0.0 8.0 0.00 0.00 0.00 42 1009.8
20260906074649 28 181 4.8 6.4 0.00 0.00 0.00 42 1009.8
20260906074148 28 168 4.8 9.7 0.00 0.00 0.00 42 1009.8
20260906073650 28 189 4.8 9.7 0.00 0.00 0.00 42 1009.8
20260906073151 28 154 0.0 11.3 0.00 0.00 0.00 42 1009.8
20260906072650 28 190 6.4 11.3 0.00 0.00 0.00 42 1009.8
20260906072152 28 216 0.0 11.3 0.00 0.00 0.00 41 1009.8
20260906071654 28 156 6.4 9.7 0.00 0.00 0.00 41 1009.8
20260906071153 28 159 0.0 11.3 0.00 0.00 0.00 41 1009.8
20260906070654 28 175 6.4 11.3 0.00 0.00 0.00 40 1009.8
20260906070156 28 198 4.8 12.9 0.00 0.00 0.00 40 1009.8
20260906065655 28 170 6.4 11.3 0.00 0.00 0.00 40 1009.8
20260906065157 28 137 8.0 11.3 0.00 0.00 0.00 39 1009.8
20260906064658 28 210 6.4 11.3 0.00 0.00 0.00 39 1010.8
20260906064157 28 158 6.4 11.3 0.00 0.00 0.00 39 1010.8
20260906063659 28 172 6.4 11.3 0.00 0.00 0.00 39 1010.8
20260906063156 28 165 4.8 11.3 0.00 0.00 0.00 38 1010.8
20260906062654 28 186 6.4 9.7 0.00 0.00 0.00 38 1010.8
20260906062151 28 223 4.8 11.3 0.00 0.00 0.00 38 1010.8
20260906061653 29 187 6.4 9.7 0.00 0.00 0.00 37 1010.8
20260906061152 29 207 6.4 14.5 0.00 0.00 0.00 37 1010.8
20260906060654 29 154 6.4 8.0 0.00 0.00 0.00 36 1010.8
20260906060151 29 177 0.0 11.3 0.00 0.00 0.00 36 1010.8
20260906055649 29 139 6.4 9.7 0.00 0.00 0.00 35 1010.8
20260906055151 29 189 6.4 8.0 0.00 0.00 0.00 35 1010.8
20260906054653 29 190 4.8 8.0 0.00 0.00 0.00 34 1010.8
20260906054152 29 210 0.0 11.3 0.00 0.00 0.00 34 1010.8
20260906053648 29 212 6.4 12.9 0.00 0.00 0.00 34 1010.8
20260906053150 29 226 6.4 9.7 0.00 0.00 0.00 34 1010.8
20260906052649 29 194 0.0 6.4 0.00 0.00 0.00 34 1010.8
20260906052151 29 192 4.8 8.0 0.00 0.00 0.00 34 1010.8
20260906051653 30 177 6.4 11.3 0.00 0.00 0.00 34 1010.8
20260906051151 29 146 6.4 14.5 0.00 0.00 0.00 34 1010.8
20260906050653 30 195 4.8 11.3 0.00 0.00 0.00 33 1010.8
20260906050150 30 193 6.4 12.9 0.00 0.00 0.00 33 1010.8
20260906045644 30 188 4.8 9.7 0.00 0.00 0.00 33 1010.8
20260906045146 30 132 6.4 12.9 0.00 0.00 0.00 33 1010.8
20260906044647 30 133 6.4 11.3 0.00 0.00 0.00 33 1009.8
20260906044142 30 211 8.0 14.5 0.00 0.00 0.00 33 1009.8
20260906043643 30 190 4.8 9.7 0.00 0.00 0.00 33 1009.8
20260906043145 30 180 4.8 11.3 0.00 0.00 0.00 33 1009.8
20260906042644 30 133 6.4 9.7 0.00 0.00 0.00 33 1009.8
20260906042146 30 175 4.8 9.7 0.00 0.00 0.00 33 1009.8
20260906041643 30 190 4.8 9.7 0.00 0.00 0.00 33 1009.8
20260906041142 30 148 6.4 14.5 0.00 0.00 0.00 33 1009.8
20260906040644 30 124 8.0 14.5 0.00 0.00 0.00 33 1009.8
20260906040146 30 126 6.4 16.1 0.00 0.00 0.00 33 1009.8
20260906035644 30 135 11.3 16.1 0.00 0.00 0.00 32 1009.8
20260906035146 30 128 9.7 14.5 0.00 0.00 0.00 32 1009.8
20260906034648 30 136 9.7 14.5 0.00 0.00 0.00 32 1009.8
20260906034147 30 127 9.7 17.7 0.00 0.00 0.00 32 1009.8
20260906033648 30 102 11.3 20.9 0.00 0.00 0.00 32 1009.8
20260906033150 30 120 12.9 16.1 0.00 0.00 0.00 31 1009.8
20260906032649 30 131 11.3 16.1 0.00 0.00 0.00 31 1009.8
20260906032151 30 143 11.3 17.7 0.00 0.00 0.00 31 1009.8
20260906031653 30 136 11.3 16.1 0.00 0.00 0.00 30 1009.8
20260906031151 30 146 12.9 17.7 0.00 0.00 0.00 30 1009.8
20260906030653 31 125 14.5 16.1 0.00 0.00 0.00 30 1009.8
20260906030155 31 123 11.3 19.3 0.00 0.00 0.00 30 1009.8
20260906025654 31 125 14.5 19.3 0.00 0.00 0.00 30 1009.8
20260906025155 31 134 12.9 17.7 0.00 0.00 0.00 29 1009.8
20260906024652 31 126 11.3 19.3 0.00 0.00 0.00 29 1009.8
20260906024151 31 120 9.7 19.3 0.00 0.00 0.00 29 1009.8
20260906023653 31 96 14.5 16.1 0.00 0.00 0.00 29 1009.8
20260906023155 31 105 11.3 19.3 0.00 0.00 0.00 27 1009.8
20260906022648 31 113 12.9 16.1 0.00 0.00 0.00 27 1009.8
20260906022150 31 130 11.3 17.7 0.00 0.00 0.00 27 1009.8
20260906021652 31 129 12.9 24.1 0.00 0.00 0.00 26 1009.8
20260906021151 31 111 11.3 19.3 0.00 0.00 0.00 25 1009.8
20260906020652 32 119 14.5 20.9 0.00 0.00 0.00 23 1009.8
20260906020154 32 117 12.9 22.5 0.00 0.00 0.00 22 1008.8
20260906015653 32 137 14.5 19.3 0.00 0.00 0.00 21 1008.8
20260906015155 32 116 16.1 19.3 0.00 0.00 0.00 21 1008.8
20260906014657 32 125 16.1 17.7 0.00 0.00 0.00 20 1008.8
20260906014155 32 114 14.5 24.1 0.00 0.00 0.00 20 1008.8
20260906013657 32 133 17.7 27.4 0.00 0.00 0.00 19 1008.8
20260906013159 32 118 20.9 30.6 0.00 0.00 0.00 19 1008.8
20260906012658 33 127 17.7 33.8 0.00 0.00 0.00 18 1008.8
20260906012159 33 146 25.7 30.6 0.00 0.00 0.00 17 1008.8
20260906011651 34 128 16.1 16.1 0.00 0.00 0.00 16 1008.8
20260906011150 35 121 12.9 16.1 0.00 0.00 0.00 16 1008.8
20260906010652 35 107 8.0 20.9 0.00 0.00 0.00 16 1008.8
20260906010153 35 112 16.1 19.3 0.00 0.00 0.00 16 1008.8
20260906005652 35 105 14.5 19.3 0.00 0.00 0.00 16 1008.8
20260906005154 35 124 11.3 19.3 0.00 0.00 0.00 14 1008.8
20260906004650 35 122 11.3 19.3 0.00 0.00 0.00 13 1008.8
20260906004147 35 114 16.1 16.1 0.00 0.00 0.00 13 1008.8
20260906003649 35 123 11.3 17.7 0.00 0.00 0.00 13 1008.8
20260906003150 35 116 11.3 16.1 0.00 0.00 0.00 13 1007.8
20260906002649 35 121 9.7 16.1 0.00 0.00 0.00 13 1007.8
20260906002151 36 139 11.3 12.9 0.00 0.00 0.00 13 1007.8
20260906001653 35 119 11.3 16.1 0.00 0.00 0.00 13 1007.8
20260906001151 36 113 12.9 17.7 0.00 0.00 0.00 13 1007.8
20260906000648 36 112 12.9 19.3 0.00 0.00 0.00 13 1007.8
20260906000150 36 128 14.5 17.7 0.00 0.00 0.00 13 1007.8
20260905235649 36 98 11.3 12.9 0.00 0.00 0.00 13 1007.8
20260905235150 36 127 8.0 16.1 0.00 0.00 0.00 13 1007.8
20260905234643 36 116 11.3 14.5 0.00 0.00 0.00 13 1007.8
20260905234141 36 124 6.4 12.9 0.00 0.00 0.00 13 1007.8
20260905233643 36 124 8.0 9.7 0.00 0.00 0.00 13 1007.8
20260905233145 36 133 6.4 9.7 0.00 0.00 0.00 13 1007.8
20260905232644 36 193 6.4 11.3 0.00 0.00 0.00 13 1007.8
20260905232146 36 132 8.0 17.7 0.00 0.00 0.00 13 1007.8
20260905231647 36 133 14.5 11.3 0.00 0.00 0.00 13 1007.8
20260905231146 36 164 8.0 12.9 0.00 0.00 0.00 13 1007.8